TimeEDT,TemperatureF,Dew PointF,Humidity,Sea Level PressureIn,VisibilityMPH,Wind Direction,Wind SpeedMPH,Gust SpeedMPH,PrecipitationIn,Events,Conditions,WindDirDegrees,DateUTC
12:56 AM,78.1,66.0,66,29.83,9.0,SSW,8.1,-,N/A,,Mostly Cloudy,200,2013-08-31 04:56:00
1:56 AM,78.1,66.0,66,29.82,9.0,SSW,9.2,-,N/A,,Mostly Cloudy,200,2013-08-31 05:56:00
2:56 AM,78.1,66.9,68,29.81,9.0,SSW,8.1,-,N/A,,Scattered Clouds,200,2013-08-31 06:56:00
3:17 AM,78.8,66.2,65,29.84,9.0,WSW,6.9,-,N/A,Thunderstorm,Thunderstorm,240,2013-08-31 07:17:00
3:56 AM,75.9,66.9,74,29.81,9.0,SW,5.8,-,N/A,Thunderstorm,Thunderstorm,220,2013-08-31 07:56:00
4:13 AM,75.2,68.0,78,29.84,8.0,SW,4.6,-,N/A,,Mostly Cloudy,220,2013-08-31 08:13:00
4:56 AM,73.0,68.0,84,29.81,7.0,WSW,3.5,-,N/A,,Scattered Clouds,250,2013-08-31 08:56:00
5:56 AM,73.0,68.0,84,29.83,9.0,WSW,5.8,-,N/A,,Mostly Cloudy,240,2013-08-31 09:56:00
6:56 AM,73.0,68.0,84,29.84,10.0,WSW,5.8,-,N/A,,Mostly Cloudy,250,2013-08-31 10:56:00
7:56 AM,73.9,69.1,85,29.83,7.0,WSW,4.6,-,N/A,,Scattered Clouds,250,2013-08-31 11:56:00
8:56 AM,77.0,68.0,74,29.86,10.0,West,4.6,-,N/A,,Scattered Clouds,270,2013-08-31 12:56:00
9:56 AM,79.0,66.9,66,29.86,10.0,West,3.5,-,N/A,,Mostly Cloudy,270,2013-08-31 13:56:00
10:56 AM,82.0,66.9,60,29.86,10.0,West,3.5,-,N/A,,Mostly Cloudy,270,2013-08-31 14:56:00
11:56 AM,82.9,68.0,60,29.86,10.0,West,4.6,-,N/A,,Mostly Cloudy,270,2013-08-31 15:56:00
12:56 PM,88.0,66.9,49,29.85,10.0,SW,8.1,-,N/A,,Scattered Clouds,230,2013-08-31 16:56:00
1:56 PM,90.0,66.0,45,29.83,10.0,SW,8.1,-,N/A,,Scattered Clouds,230,2013-08-31 17:56:00
2:56 PM,88.0,66.0,48,29.83,10.0,WSW,6.9,-,N/A,,Overcast,250,2013-08-31 18:56:00
3:56 PM,88.0,66.9,49,29.82,10.0,West,8.1,-,N/A,,Mostly Cloudy,270,2013-08-31 19:56:00
4:56 PM,84.0,66.0,55,29.81,10.0,NNW,16.1,20.7,N/A,,Mostly Cloudy,330,2013-08-31 20:56:00
5:56 PM,78.1,64.9,64,29.85,10.0,NNW,11.5,-,N/A,,Overcast,340,2013-08-31 21:56:00
6:56 PM,73.0,66.9,81,29.80,10.0,SSE,12.7,-,0.00,,Overcast,160,2013-08-31 22:56:00
7:06 PM,73.4,66.2,78,29.81,10.0,South,12.7,-,0.00,Rain,Light Rain,170,2013-08-31 23:06:00
7:56 PM,73.0,66.0,79,29.82,10.0,SSE,4.6,-,0.00,,Overcast,150,2013-08-31 23:56:00
8:56 PM,72.0,68.0,87,29.85,10.0,WSW,10.4,-,N/A,,Mostly Cloudy,250,2013-09-01 00:56:00
9:56 PM,72.0,69.1,91,29.81,10.0,SSW,4.6,-,0.00,,Overcast,200,2013-09-01 01:56:00
10:56 PM,71.1,68.0,90,29.83,10.0,Calm,Calm,-,N/A,,Overcast,0,2013-09-01 02:56:00
11:56 PM,71.1,68.0,90,29.83,10.0,WSW,8.1,-,N/A,,Overcast,240,2013-09-01 03:56:00